Wind_Speed
15 15 16 16 16 15 15 15 15 15 16 16 16 15 15 16 16 15 15 16 16 16 16 16 16 15 15 15 15 15 15 15 15 15 15 15 15 15 16 16 16 15 16
15 16 16 17 16 16 16 16 16 15 16 16 16 15 15 16 16 16 15 16 16 16 16 17 16 16 15 15 15 15 15 15 15 15 14 15 15 16 16 17 16 16 16
16 16 16 17 17 17 17 17 17 17 17 16 16 16 16 16 16 16 16 16 16 16 17 17 16 16 15 15 16 16 15 15 14 14 14 15 16 16 16 16 16 17 17
16 16 16 17 17 17 17 17 17 17 16 16 16 16 16 16 17 17 16 16 16 16 16 16 15 16 16 15 15 15 15 15 15 15 15 15 15 16 16 16 17 17 17
16 16 15 16 16 16 17 17 16 16 16 16 16 16 17 17 17 17 16 16 16 16 16 15 15 16 16 15 15 15 14 15 15 16 16 15 15 15 16 17 17 18 18
15 16 16 15 16 16 16 15 15 16 16 16 16 16 16 17 17 17 16 15 14 15 15 15 16 16 16 16 16 16 15 16 16 16 16 16 16 16 17 17 17 18 19
16 16 15 15 16 16 15 15 15 15 15 16 16 16 16 17 16 16 16 17 16 16 16 16 16 16 17 17 17 17 17 16 16 16 16 16 16 17 17 18 19 20 20
17 17 16 16 15 14 14 14 15 16 16 16 16 16 16 16 16 16 17 17 17 16 16 17 17 17 17 16 16 16 15 16 16 16 17 17 17 18 18 19 20 21 22
17 17 16 15 15 14 14 14 15 16 16 16 16 15 16 16 15 16 16 16 16 17 17 17 17 17 17 16 16 16 16 16 17 17 17 17 18 19 19 20 21 22 22
17 17 16 16 16 15 14 14 15 16 16 15 15 15 16 16 16 16 16 16 16 17 17 17 16 17 17 17 18 17 17 17 18 18 18 18 19 20 21 22 22 22 22
16 16 17 17 16 15 15 15 15 16 16 15 15 15 15 15 15 15 16 16 16 16 17 17 17 17 18 18 17 17 17 18 19 18 19 19 20 21 22 23 23 23 24
17 17 17 17 17 17 17 16 16 16 15 16 16 16 15 15 15 16 17 17 17 17 17 18 18 19 18 18 18 18 18 19 19 20 20 20 21 22 23 23 23 24 25
18 18 18 19 19 19 18 18 17 17 17 17 17 18 17 17 16 17 17 17 18 18 18 18 19 19 19 19 19 19 20 20 20 21 21 22 23 23 24 24 25 26 27
19 19 19 20 20 20 20 20 19 19 19 19 19 19 19 18 18 18 18 18 18 18 19 19 19 20 19 19 20 20 21 21 22 22 23 24 24 25 25 26 27 27 27
20 20 20 21 20 20 21 21 21 21 21 21 21 20 20 20 20 20 20 20 20 20 20 20 19 20 20 21 21 22 23 23 24 24 25 25 26 27 27 28 28 28 28
22 21 21 21 21 21 21 21 21 22 22 22 22 22 21 22 22 22 22 22 22 21 21 21 21 21 21 22 23 24 24 25 25 25 26 27 27 28 29 29 29 29 28
22 22 22 22 21 21 22 22 22 22 23 23 23 23 23 23 23 23 23 23 23 23 23 23 23 23 23 23 24 24 25 26 26 27 27 28 28 28 29 30 30 30 30
24 23 23 23 23 23 23 23 23 23 23 24 24 25 25 25 24 24 24 25 25 25 25 25 25 24 24 25 26 26 26 27 27 27 28 28 28 29 29 29 30 30 31
25 25 24 24 24 25 25 25 24 24 24 25 26 26 26 26 26 26 26 26 26 25 25 25 25 25 25 26 26 27 27 27 27 28 28 28 28 29 29 30 30 30 30
26 26 26 26 26 26 26 26 26 26 26 26 26 27 27 28 28 28 28 27 26 26 26 26 26 26 26 27 27 27 27 27 27 27 28 28 28 29 30 30 30 30 30
27 27 28 28 27 27 28 28 27 27 27 27 27 27 28 28 29 29 28 28 27 27 27 27 27 27 28 28 28 27 27 27 27 28 28 28 28 29 29 29 30 30 31
28 28 29 29 29 29 29 28 28 28 28 28 28 28 28 28 28 28 28 28 28 29 29 29 29 29 29 29 30 29 27 27 27 27 28 28 28 29 29 29 30 31 31
29 29 29 29 30 30 29 29 28 28 29 28 28 28 28 28 28 28 28 29 29 29 30 30 31 31 30 29 29 28 27 27 27 27 28 28 28 28 29 30 31 31 31
30 30 30 30 30 30 30 30 30 30 30 30 29 29 29 29 29 29 29 30 30 30 31 31 31 30 30 29 28 27 27 27 27 28 28 29 29 30 30 30 31 31 31
31 31 30 30 30 30 30 30 30 31 31 31 31 30 29 30 30 31 31 31 31 31 31 31 30 29 29 28 28 28 28 28 28 28 28 29 29 30 31 31 31 31 30
31 31 31 31 31 31 30 30 30 31 31 31 31 31 31 31 31 31 32 31 31 31 31 31 30 29 29 28 28 29 28 28 28 28 28 28 29 30 30 30 30 30 30
Wind_Direction
268 268 269 271 271 271 273 271 273 275 276 276 277 280 281 280 282 281 279 280 282 283 284 285 285 286 287 288 290 290 287 286 284 285 283 283 281 279 281 284 288 290 291
269 268 271 271 270 272 273 271 272 275 276 275 274 277 280 282 280 279 279 279 281 281 283 284 284 285 285 286 289 290 288 287 284 285 284 284 283 281 282 286 289 291 293
270 269 271 271 271 273 273 272 270 274 274 274 272 273 277 279 278 279 279 280 284 285 284 284 283 285 285 286 288 287 288 287 284 281 284 286 286 283 282 285 287 290 292
270 270 272 270 271 272 273 273 273 273 272 271 271 273 277 276 276 279 282 285 287 284 285 286 283 283 284 285 286 286 288 288 284 283 284 286 283 283 283 285 287 289 291
270 271 272 270 271 272 274 275 273 274 272 271 270 272 276 277 278 280 282 284 283 285 286 286 286 287 286 287 287 286 286 288 287 287 286 287 286 287 286 286 286 289 291
269 271 271 271 272 272 275 274 275 275 273 273 272 273 275 278 277 279 280 283 285 287 288 288 286 285 284 283 284 284 283 284 286 287 287 288 289 290 291 291 291 292 294
270 272 271 272 271 271 272 271 274 274 272 272 275 275 275 276 277 279 280 283 283 287 286 286 285 285 283 281 281 284 283 283 286 288 287 287 289 290 291 293 294 295 296
270 272 271 273 269 270 270 271 272 271 270 272 275 274 273 274 277 278 280 281 283 285 286 284 287 284 280 277 279 282 283 284 287 289 288 288 289 289 290 293 295 296 296
270 270 268 267 267 270 272 271 272 272 271 272 273 274 275 277 278 279 281 283 283 286 288 287 287 286 285 279 277 278 280 283 286 290 291 289 289 291 293 294 296 297 297
268 267 263 264 269 270 270 271 273 273 271 271 271 274 275 276 278 280 283 287 287 288 289 289 288 287 286 284 281 279 279 280 283 288 290 289 291 294 295 296 296 297 297
265 264 261 263 266 267 268 272 275 274 271 271 271 276 276 277 278 280 284 286 288 289 290 289 288 287 285 284 285 283 280 279 283 287 290 290 292 295 295 296 297 298 298
265 263 261 262 263 266 269 271 273 274 273 272 273 277 276 276 279 282 283 285 288 289 290 290 288 287 284 282 284 283 282 283 286 289 290 292 293 296 297 297 297 298 299
266 264 261 262 263 265 268 269 270 273 273 273 275 276 275 277 280 283 284 286 289 288 288 289 288 286 283 282 283 282 282 284 287 290 291 292 293 295 296 297 299 298 298
265 265 263 263 263 264 265 266 267 270 272 272 273 274 275 276 279 283 285 287 289 288 288 289 289 287 285 284 284 284 283 284 287 289 290 292 293 294 295 297 297 298 299
267 266 264 262 263 264 265 267 268 269 270 271 271 271 273 275 277 280 283 286 287 287 287 289 290 287 286 286 284 284 284 285 286 288 289 291 293 295 296 297 298 298 299
267 266 266 264 264 265 265 267 269 270 269 269 269 270 273 276 277 279 281 283 284 285 287 289 290 288 287 287 286 283 283 284 287 288 289 292 293 294 296 297 297 298 298
266 264 266 265 263 263 265 268 268 269 270 270 270 272 273 276 278 279 279 280 282 283 285 288 288 289 288 288 287 286 285 285 287 289 290 292 293 294 296 297 298 298 298
265 264 264 264 264 265 266 268 269 271 270 271 271 272 273 274 276 278 278 279 282 283 284 286 286 288 289 289 290 288 286 285 287 289 290 291 293 295 297 298 298 299 300
265 264 263 262 263 265 266 267 269 271 272 272 271 272 274 274 275 277 279 281 284 286 288 288 287 288 288 291 292 290 287 286 287 288 290 291 293 295 296 297 299 300 300
266 264 263 263 264 265 266 267 269 271 273 274 273 273 273 272 274 276 278 280 283 286 288 288 288 287 287 290 292 292 290 288 288 288 289 291 293 295 295 296 298 299 300
265 263 263 263 264 265 266 267 269 271 273 274 274 275 274 273 273 275 276 279 282 284 286 286 286 287 288 290 292 292 290 289 288 288 289 291 293 295 296 296 297 299 301
264 265 264 263 263 265 266 267 269 270 272 273 273 274 274 274 274 275 277 278 281 282 284 284 286 287 287 288 289 288 288 288 288 289 291 292 293 295 296 297 298 299 300
265 265 266 266 265 264 265 266 269 270 271 272 273 273 274 274 276 277 276 277 278 281 283 284 286 286 286 286 287 286 286 287 288 289 290 292 293 293 295 297 299 300 299
264 264 265 266 265 264 265 266 267 270 272 273 273 273 273 274 275 277 277 277 277 279 281 282 284 285 285 284 284 285 285 286 287 289 290 291 292 294 294 295 298 300 300
263 264 265 266 266 266 266 267 268 269 271 272 273 274 274 275 276 276 277 278 278 279 281 282 282 282 283 282 282 283 284 285 287 289 290 291 292 294 295 295 296 298 299
264 264 266 266 267 267 267 268 269 270 271 271 272 273 274 274 275 276 277 278 278 278 278 279 280 279 280 282 282 283 284 284 285 287 289 291 293 295 296 296 297 297 298
Height
5828 5828 5829 5829 5829 5830 5831 5831 5831 5831 5831 5832 5832 5832 5832 5832 5832 5831 5831 5831 5830 5830 5829 5829 5828 5828 5827 5826 5825 5824 5823 5823 5822 5821 5820 5820 5819 5819 5819 5819 5819 5818 5817
5824 5824 5825 5825 5826 5826 5827 5827 5827 5827 5827 5828 5828 5828 5828 5828 5828 5827 5827 5827 5826 5826 5825 5825 5824 5823 5823 5822 5822 5821 5820 5819 5818 5817 5816 5816 5815 5815 5815 5815 5815 5814 5813
5820 5820 5821 5821 5822 5822 5822 5823 5823 5823 5823 5824 5824 5824 5824 5824 5824 5823 5823 5822 5822 5822 5821 5820 5820 5819 5819 5818 5817 5817 5816 5815 5814 5813 5813 5812 5812 5811 5811 5811 5810 5809 5809
5816 5816 5817 5817 5817 5818 5818 5818 5818 5819 5819 5819 5819 5820 5820 5820 5820 5819 5819 5818 5818 5817 5817 5816 5815 5815 5814 5814 5813 5812 5812 5811 5810 5809 5809 5809 5808 5807 5807 5806 5806 5805 5804
5812 5812 5812 5812 5813 5813 5813 5814 5814 5814 5815 5815 5815 5816 5816 5816 5815 5815 5815 5814 5814 5813 5812 5812 5811 5810 5810 5810 5809 5808 5808 5807 5806 5806 5805 5805 5804 5803 5803 5802 5801 5800 5799
5807 5808 5808 5808 5808 5809 5809 5809 5810 5810 5810 5811 5811 5811 5811 5811 5811 5810 5810 5810 5809 5809 5808 5808 5807 5806 5806 5805 5804 5804 5804 5803 5802 5802 5801 5801 5800 5799 5798 5797 5796 5796 5794
5803 5803 5803 5804 5804 5804 5805 5805 5805 5806 5806 5807 5807 5807 5807 5807 5806 5806 5806 5806 5805 5805 5804 5804 5803 5802 5801 5801 5800 5800 5799 5799 5798 5798 5797 5796 5795 5795 5794 5793 5792 5790 5789
5798 5799 5799 5799 5800 5800 5800 5801 5801 5802 5802 5802 5802 5803 5803 5803 5802 5802 5802 5801 5801 5801 5800 5799 5798 5797 5797 5796 5796 5795 5795 5794 5794 5793 5792 5792 5791 5790 5789 5788 5787 5785 5783
5793 5794 5795 5795 5795 5796 5796 5797 5797 5797 5798 5798 5798 5798 5798 5798 5798 5798 5798 5797 5797 5796 5795 5795 5794 5793 5792 5792 5791 5791 5791 5790 5789 5789 5788 5787 5786 5785 5784 5783 5781 5780 5778
5788 5789 5790 5790 5791 5792 5792 5792 5793 5793 5794 5794 5794 5794 5794 5794 5794 5794 5793 5793 5792 5791 5791 5790 5789 5788 5788 5787 5787 5786 5786 5786 5785 5784 5783 5782 5781 5780 5778 5777 5775 5773 5771
5783 5784 5785 5786 5786 5787 5788 5788 5788 5789 5789 5789 5790 5790 5790 5790 5789 5789 5789 5788 5787 5787 5786 5785 5784 5784 5783 5782 5782 5781 5781 5780 5780 5779 5778 5777 5776 5774 5773 5771 5769 5767 5765
5778 5779 5780 5781 5782 5782 5783 5784 5784 5784 5785 5785 5785 5785 5785 5785 5785 5785 5784 5784 5783 5782 5781 5781 5780 5779 5778 5777 5777 5776 5776 5775 5775 5774 5773 5772 5770 5768 5766 5764 5762 5760 5758
5773 5773 5774 5775 5776 5777 5778 5779 5779 5780 5780 5780 5780 5781 5781 5780 5780 5780 5779 5779 5778 5777 5777 5776 5775 5774 5773 5772 5772 5771 5771 5770 5769 5768 5767 5766 5764 5762 5760 5758 5756 5753 5751
5767 5768 5769 5770 5770 5771 5772 5773 5774 5774 5774 5775 5775 5775 5775 5775 5775 5775 5774 5774 5773 5772 5771 5770 5769 5768 5768 5767 5766 5765 5764 5764 5763 5762 5761 5759 5757 5755 5753 5751 5749 5746 5744
5761 5762 5763 5764 5764 5765 5766 5767 5768 5768 5768 5769 5769 5769 5770 5770 5770 5770 5769 5768 5768 5767 5766 5765 5764 5763 5762 5761 5760 5759 5758 5757 5756 5755 5754 5752 5750 5748 5746 5744 5741 5739 5736
5755 5756 5756 5757 5758 5759 5760 5760 5761 5761 5762 5762 5763 5763 5763 5764 5764 5763 5763 5762 5761 5761 5760 5759 5758 5757 5756 5755 5754 5753 5752 5751 5749 5748 5746 5745 5743 5741 5738 5736 5733 5731 5728
5748 5749 5750 5751 5752 5753 5753 5754 5755 5755 5755 5756 5756 5756 5757 5757 5757 5756 5756 5755 5755 5754 5753 5753 5751 5750 5749 5748 5746 5745 5744 5743 5742 5740 5738 5736 5734 5732 5730 5727 5725 5722 5720
5741 5742 5743 5744 5745 5746 5746 5747 5748 5748 5748 5749 5749 5749 5749 5749 5749 5749 5748 5748 5747 5747 5746 5745 5744 5742 5741 5740 5739 5737 5736 5735 5733 5732 5730 5728 5726 5723 5721 5719 5716 5713 5710
5733 5734 5735 5736 5737 5738 5739 5739 5740 5741 5741 5741 5741 5741 5741 5741 5741 5741 5741 5740 5740 5739 5738 5737 5736 5734 5733 5732 5731 5729 5727 5726 5725 5723 5721 5719 5717 5715 5712 5710 5707 5704 5702
5725 5726 5727 5728 5729 5730 5731 5731 5732 5733 5733 5733 5733 5733 5733 5733 5733 5733 5733 5732 5732 5731 5730 5729 5727 5726 5725 5724 5722 5720 5719 5717 5716 5714 5712 5710 5708 5706 5703 5701 5698 5696 5693
5717 5718 5719 5720 5721 5722 5722 5723 5723 5724 5724 5724 5724 5724 5724 5724 5724 5724 5724 5724 5723 5722 5721 5720 5719 5717 5716 5715 5713 5711 5710 5708 5707 5705 5703 5701 5699 5697 5694 5692 5689 5687 5684
5708 5709 5710 5711 5712 5713 5713 5714 5714 5715 5715 5715 5715 5715 5715 5715 5715 5715 5715 5714 5714 5713 5712 5711 5709 5708 5707 5705 5704 5702 5701 5699 5697 5696 5694 5692 5690 5688 5685 5683 5680 5678 5675
5699 5700 5701 5701 5702 5703 5704 5704 5705 5705 5706 5706 5705 5706 5706 5706 5705 5705 5705 5705 5704 5703 5702 5701 5700 5699 5697 5696 5694 5693 5691 5690 5689 5687 5685 5683 5681 5679 5676 5674 5671 5668 5665
5689 5690 5691 5692 5692 5693 5694 5695 5695 5696 5696 5696 5696 5696 5696 5696 5696 5696 5695 5695 5694 5693 5692 5691 5690 5689 5687 5686 5685 5683 5682 5681 5679 5678 5676 5674 5672 5670 5668 5665 5662 5659 5656
5680 5680 5681 5682 5682 5683 5684 5685 5685 5686 5686 5686 5686 5686 5686 5686 5686 5686 5685 5684 5684 5683 5682 5681 5680 5679 5678 5676 5675 5674 5673 5672 5670 5668 5667 5665 5663 5661 5659 5656 5653 5650 5647
5669 5670 5671 5672 5672 5673 5674 5674 5675 5676 5676 5676 5676 5676 5676 5676 5676 5675 5675 5674 5673 5673 5672 5671 5670 5669 5668 5667 5666 5664 5663 5662 5661 5659 5657 5656 5654 5652 5649 5647 5644 5641 5638